Regional Weather Roundup
Issued by NWS

Home | Current Version | Previous Version | Graphics & Text | Print | Product List | Glossary On
Versions: 1 2 3 4 5 6 7 8 9 10 11 12 13 14 15 16 17 18 19 20 21 22 23 24 25 26 27 28 29 30 31 32 33 34 35 36 37 38 39 40 41 42 43 44 45 46 47 48 49 50
123
ASUS43 KLMK 011710
RWRKY
KENTUCKY REGIONAL WEATHER ROUNDUP
NATIONAL WEATHER SERVICE LOUISVILLE KY
100 PM EDT SUN MAY 01 2016

NOTE "FAIR" INDICATES FEW OR NO CLOUDS BELOW 12,000 FEET
WITH NO SIGNIFICANT WEATHER AND/OR OBSTRUCTIONS TO VISIBILITY.

KYZ001>023-026-027-061>063-070>075-011800-
WESTERN AND SOUTH CENTRAL KENTUCKY

CITY           SKY/WX    TMP DP  RH WIND       PRES   REMARKS
PADUCAH        CLOUDY    73  66  78 S5        29.93S
HENDERSON      MOSUNNY   77  64  65 S12       29.91F
OWENSBORO      PTSUNNY   78  66  66 SW8       29.93S
HOPKINSVILLE   MOSUNNY   75  67  75 SW6       29.94F
BOWLING GREEN  PTSUNNY   77  67  71 S9        29.95S
GLASGOW        PTSUNNY   74  65  73 SW6       29.96S
$$

KYZ024-025-028>034-038-045-046-053-011800-
NORTH CENTRAL KENTUCKY

CITY           SKY/WX    TMP DP  RH WIND       PRES   REMARKS
LOUISVILLE/SDF PTSUNNY   78  62  57 SW7       29.91F
LOUISVILLE/LOU PTSUNNY   76  63  64 SE5       29.92F
FORT KNOX      MOSUNNY   78  64  62 SW6       29.91S
$$

KYZ035>037-039>044-047>052-055>060-089>105-011800-
NORTHEAST KENTUCKY

CITY           SKY/WX    TMP DP  RH WIND       PRES   REMARKS
LEXINGTON      MOSUNNY   76  64  66 SW10      29.94F
COVINGTON      MOSUNNY   75  60  59 VRB3      29.94F
FRANKFORT      PTSUNNY   76  63  64 S7        29.92F
$$

KYZ054-064>069-076>088-106>120-011800-
SOUTHEAST KENTUCKY

CITY           SKY/WX    TMP DP  RH WIND       PRES   REMARKS
JACKSON        PTSUNNY   70  63  78 VRB3      29.98F
LONDON         PTSUNNY   76  62  62 SW7       29.97F
SOMERSET       PTSUNNY   73  63  68 W7        29.97F
MIDDLESBORO    MOSUNNY   76  65  67 S10G16    30.00S
MONTICELLO     MOSUNNY   78  65  63 VRB7G18   29.98F
$$





USA.gov is the U.S. government's official web portal to all federal, state and local government web resources and services.